VOE34KY LFKF-EBCI

Flight info

Callsign VOE34KY
Flight time N/A
Altitude 32000
Route LONSU M622 PIGOS DCT BARSO DCT IRMAR DCT KINES DCT VANAS DCT MOBLO DCT UBIMA/N0411F280 DCT GILIR DCT PENDU DCT IXILU DCT GIVOR DCT SORAL DCT IBERA DCT DIK Y37 BATTY
Aircraft A320/M-SDE3FGHIRWY/LB1

Departure

Time 2026-05-04 12:28
Airport Figari Sud-Corse Airport (LFKF)

Arrival

Time N/A
Airport Brussels South Charleroi Airport (EBCI)
Time Latitude Longitude Altitude Speed Heading
2026-05-04 12:15 41.49993 9.09830 71 ft 0 kts 137°
2026-05-04 12:22 41.49999 9.09823 65 ft 4 kts 136°
2026-05-04 12:22 41.50017 9.09797 63 ft 4 kts 124°
2026-05-04 12:22 41.50027 9.09771 62 ft 4 kts 81°
2026-05-04 12:23 41.50024 9.09758 71 ft 0 kts 47°
2026-05-04 12:25 41.50030 9.09767 71 ft 6 kts 47°
2026-05-04 12:25 41.50113 9.09795 63 ft 20 kts 326°
2026-05-04 12:26 41.50191 9.09633 71 ft 19 kts 250°
2026-05-04 12:26 41.50090 9.09510 71 ft 26 kts 224°
2026-05-04 12:26 41.49873 9.09192 66 ft 82 kts 227°
2026-05-04 12:26 41.49561 9.08743 51 ft 43 kts 228°
2026-05-04 12:27 41.49464 9.08652 47 ft 10 kts 264°
2026-05-04 12:27 41.49485 9.08637 45 ft 6 kts 11°
2026-05-04 12:27 41.49546 9.08709 50 ft 17 kts 48°
2026-05-04 12:27 41.49784 9.09055 66 ft 84 kts 47°
2026-05-04 12:28 41.50312 9.09827 85 ft 138 kts 50°
2026-05-04 12:28 41.51015 9.10770 587 ft 145 kts 50°
2026-05-04 12:28 41.51755 9.11755 1186 ft 155 kts 51°
2026-05-04 12:28 41.52574 9.12733 1843 ft 166 kts 48°
2026-05-04 12:29 41.53453 9.13845 2453 ft 183 kts 47°
2026-05-04 12:29 41.54416 9.15119 2975 ft 207 kts 47°
2026-05-04 12:29 41.55456 9.16569 3603 ft 223 kts 49°
2026-05-04 12:29 41.56558 9.18146 4209 ft 243 kts 49°
2026-05-04 12:30 41.57748 9.19910 4722 ft 265 kts 51°
2026-05-04 12:30 41.58972 9.21817 5413 ft 274 kts 50°
2026-05-04 12:30 41.60239 9.23787 6103 ft 285 kts 50°
2026-05-04 12:30 41.61555 9.25783 6789 ft 291 kts 49°
2026-05-04 12:31 41.62911 9.27808 7608 ft 293 kts 47°
2026-05-04 12:31 41.64459 9.29611 8364 ft 297 kts 26°
2026-05-04 12:31 41.66440 9.30245 9089 ft 295 kts 353°
2026-05-04 12:31 41.68348 9.29397 9935 ft 289 kts 321°
2026-05-04 12:32 41.69850 9.27611 10762 ft 291 kts 313°
2026-05-04 12:32 41.73072 9.23735 11326 ft 333 kts 314°
2026-05-04 12:32 41.74689 9.21452 11899 ft 340 kts 309°
2026-05-04 12:33 41.76263 9.19055 12597 ft 345 kts 308°
2026-05-04 12:33 41.77829 9.16585 13336 ft 349 kts 307°
2026-05-04 12:33 41.79395 9.14058 14017 ft 353 kts 306°
2026-05-04 12:33 41.80959 9.11507 14640 ft 356 kts 306°
2026-05-04 12:34 41.82521 9.08952 15244 ft 359 kts 306°
2026-05-04 12:34 41.84111 9.06350 15845 ft 362 kts 306°
2026-05-04 12:34 41.85719 9.03719 16446 ft 366 kts 306°
2026-05-04 12:34 41.87343 9.01069 17036 ft 369 kts 306°
2026-05-04 12:35 41.88985 8.98389 17630 ft 372 kts 306°
2026-05-04 12:35 41.90638 8.95691 18226 ft 375 kts 306°
2026-05-04 12:35 41.92307 8.92969 18748 ft 378 kts 306°
2026-05-04 12:35 41.93964 8.90262 19251 ft 381 kts 306°
2026-05-04 12:36 41.95657 8.87497 19795 ft 384 kts 306°
2026-05-04 12:36 41.97362 8.84710 20339 ft 387 kts 306°
2026-05-04 12:36 41.99076 8.81903 20894 ft 389 kts 306°
2026-05-04 12:36 42.00802 8.79071 21416 ft 391 kts 306°
2026-05-04 12:37 42.02533 8.76224 21947 ft 394 kts 307°
2026-05-04 12:37 42.04272 8.73361 22440 ft 396 kts 307°
2026-05-04 12:37 42.06003 8.70513 22914 ft 399 kts 307°
2026-05-04 12:37 42.07775 8.67592 23393 ft 402 kts 307°
2026-05-04 12:38 42.09546 8.64666 23818 ft 404 kts 307°
2026-05-04 12:38 42.11334 8.61717 24228 ft 405 kts 306°
2026-05-04 12:38 42.13102 8.58800 24641 ft 406 kts 306°
2026-05-04 12:38 42.14894 8.55845 25057 ft 407 kts 306°
2026-05-04 12:39 42.16694 8.52869 25462 ft 408 kts 306°
2026-05-04 12:39 42.18483 8.49900 25855 ft 408 kts 305°
2026-05-04 12:39 42.20298 8.46951 26242 ft 411 kts 309°
2026-05-04 12:39 42.22414 8.44316 26610 ft 417 kts 318°
2026-05-04 12:40 42.24840 8.42190 26967 ft 424 kts 326°
2026-05-04 12:40 42.27429 8.40273 27323 ft 425 kts 326°
2026-05-04 12:40 42.30025 8.38342 27676 ft 426 kts 326°
2026-05-04 12:40 42.32626 8.36399 28017 ft 427 kts 325°
2026-05-04 12:41 42.35236 8.34446 28345 ft 429 kts 325°
2026-05-04 12:41 42.37852 8.32488 28676 ft 430 kts 325°
2026-05-04 12:41 42.40484 8.30513 28988 ft 431 kts 325°
2026-05-04 12:41 42.43086 8.28556 29281 ft 433 kts 325°
2026-05-04 12:42 42.45722 8.26575 29566 ft 434 kts 324°
2026-05-04 12:42 42.48381 8.24576 29854 ft 436 kts 324°
2026-05-04 12:42 42.51038 8.22576 30117 ft 437 kts 324°
2026-05-04 12:42 42.53702 8.20568 30330 ft 438 kts 324°
2026-05-04 12:43 42.56377 8.18549 30536 ft 440 kts 324°
2026-05-04 12:43 42.59054 8.16528 30769 ft 440 kts 324°
2026-05-04 12:43 42.61695 8.14534 31064 ft 439 kts 324°
2026-05-04 12:43 42.64367 8.12514 31353 ft 438 kts 324°
2026-05-04 12:44 42.67032 8.10495 31644 ft 437 kts 324°
2026-05-04 12:44 42.69696 8.08477 31931 ft 437 kts 324°
2026-05-04 12:44 42.72345 8.06467 32041 ft 433 kts 324°
2026-05-04 12:45 42.77509 8.02547 32066 ft 423 kts 323°
2026-05-04 12:45 42.82660 7.98637 32069 ft 422 kts 323°
2026-05-04 12:46 42.87775 7.94755 32075 ft 423 kts 324°
2026-05-04 12:46 42.92928 7.90841 32070 ft 423 kts 324°
2026-05-04 12:47 42.98081 7.86920 32065 ft 424 kts 324°
2026-05-04 12:47 43.03244 7.82982 32064 ft 424 kts 324°
2026-05-04 12:48 43.08371 7.79063 32065 ft 424 kts 324°
2026-05-04 12:48 43.12660 7.75765 32061 ft 425 kts 324°
2026-05-04 12:49 43.17818 7.71764 32063 ft 425 kts 324°
2026-05-04 12:49 43.22984 7.67750 32063 ft 426 kts 324°
2026-05-04 12:50 43.28130 7.63742 32066 ft 427 kts 324°
2026-05-04 12:50 43.33310 7.59718 32069 ft 428 kts 324°
2026-05-04 12:51 43.38506 7.55689 32071 ft 428 kts 324°
2026-05-04 12:51 43.43677 7.51668 32077 ft 429 kts 324°
2026-05-04 12:52 43.48883 7.47592 32083 ft 429 kts 324°
2026-05-04 12:52 43.54049 7.43541 32084 ft 429 kts 324°
2026-05-04 12:53 43.59261 7.39450 32084 ft 430 kts 324°
2026-05-04 12:53 43.64410 7.35304 32080 ft 428 kts 322°
2026-05-04 12:54 43.69352 7.30815 32079 ft 427 kts 320°
2026-05-04 12:54 43.74245 7.26180 32081 ft 427 kts 320°
2026-05-04 12:55 43.79182 7.21572 32078 ft 428 kts 320°
2026-05-04 12:55 43.84149 7.17013 32081 ft 428 kts 320°
2026-05-04 12:56 43.89120 7.12452 32072 ft 428 kts 320°
2026-05-04 12:56 43.94051 7.07902 32070 ft 427 kts 320°
2026-05-04 12:57 43.99019 7.03297 32081 ft 428 kts 320°
2026-05-04 12:57 44.03966 6.98718 32087 ft 429 kts 320°
2026-05-04 12:58 44.08940 6.94103 32085 ft 429 kts 320°
2026-05-04 12:58 44.14128 6.89976 32089 ft 439 kts 333°
2026-05-04 12:59 44.20183 6.88129 32085 ft 452 kts 348°
2026-05-04 12:59 44.26452 6.87226 32089 ft 452 kts 348°
2026-05-04 13:00 44.32713 6.86284 32094 ft 453 kts 348°
2026-05-04 13:00 44.38920 6.85333 32102 ft 454 kts 348°
2026-05-04 13:01 44.45264 6.84365 32100 ft 454 kts 348°
2026-05-04 13:01 44.51555 6.83407 32119 ft 455 kts 349°
2026-05-04 13:02 44.57866 6.82435 32111 ft 456 kts 349°
2026-05-04 13:02 44.64140 6.81472 32113 ft 456 kts 349°
2026-05-04 13:03 44.70475 6.80512 32122 ft 457 kts 349°
2026-05-04 13:03 44.76787 6.79549 32127 ft 457 kts 349°
2026-05-04 13:04 44.83133 6.78669 32128 ft 459 kts 352°
2026-05-04 13:04 44.89505 6.78254 32135 ft 461 kts 354°
2026-05-04 13:05 44.95932 6.77976 32142 ft 460 kts 354°
2026-05-04 13:05 45.02304 6.77611 32142 ft 460 kts 354°
2026-05-04 13:06 45.08721 6.77175 32146 ft 460 kts 354°
2026-05-04 13:06 45.15077 6.76734 32142 ft 460 kts 354°
2026-05-04 13:07 45.21471 6.76301 32135 ft 459 kts 354°
2026-05-04 13:07 45.27885 6.75870 32121 ft 459 kts 354°
2026-05-04 13:08 45.34230 6.75450 32112 ft 459 kts 354°
2026-05-04 13:08 45.40622 6.75032 32107 ft 460 kts 355°
2026-05-04 13:09 45.47034 6.74611 32104 ft 460 kts 354°
2026-05-04 13:09 45.53399 6.74174 32097 ft 460 kts 355°
2026-05-04 13:10 45.59799 6.73722 32089 ft 460 kts 354°
2026-05-04 13:10 45.66212 6.73275 32075 ft 461 kts 355°
2026-05-04 13:11 45.72635 6.72837 32065 ft 462 kts 355°
2026-05-04 13:11 45.79031 6.72395 32058 ft 462 kts 355°
2026-05-04 13:12 45.85466 6.71948 32047 ft 462 kts 355°
2026-05-04 13:12 45.91916 6.71519 32050 ft 463 kts 355°
2026-05-04 13:13 45.98333 6.71094 32046 ft 464 kts 355°
2026-05-04 13:13 46.04782 6.70654 32044 ft 463 kts 355°
2026-05-04 13:14 46.11231 6.70115 32043 ft 462 kts 349°
2026-05-04 13:14 46.17375 6.67820 32034 ft 457 kts 338°
2026-05-04 13:15 46.23405 6.64882 32028 ft 457 kts 338°
2026-05-04 13:15 46.29452 6.61943 32030 ft 458 kts 338°
2026-05-04 13:16 46.35515 6.58994 32028 ft 458 kts 338°
2026-05-04 13:16 46.41561 6.56032 32027 ft 459 kts 338°
2026-05-04 13:17 46.47576 6.53079 32027 ft 459 kts 338°
2026-05-04 13:17 46.53641 6.50113 32025 ft 460 kts 338°
2026-05-04 13:18 46.59708 6.47132 32029 ft 460 kts 338°
2026-05-04 13:18 46.65788 6.44117 32012 ft 460 kts 338°
2026-05-04 13:19 46.71824 6.41122 32013 ft 460 kts 338°
2026-05-04 13:19 46.77905 6.38102 32016 ft 461 kts 338°
2026-05-04 13:20 46.83991 6.35082 32014 ft 462 kts 338°
2026-05-04 13:20 46.90052 6.32078 32004 ft 462 kts 338°
2026-05-04 13:21 46.96160 6.29025 32009 ft 463 kts 338°
2026-05-04 13:21 47.02261 6.25963 31996 ft 463 kts 338°
2026-05-04 13:22 47.08241 6.22556 32001 ft 459 kts 330°
2026-05-04 13:22 47.13951 6.18431 31999 ft 460 kts 329°
2026-05-04 13:23 47.19692 6.14279 31999 ft 460 kts 330°
2026-05-04 13:23 47.25453 6.10112 32006 ft 460 kts 330°
2026-05-04 13:24 47.31234 6.05963 32006 ft 462 kts 333°
2026-05-04 13:24 47.37451 6.03533 32001 ft 470 kts 352°
2026-05-04 13:25 47.47305 6.03551 32009 ft 473 kts 359°
2026-05-04 13:25 47.53852 6.03697 32009 ft 473 kts 359°
2026-05-04 13:26 47.60461 6.03829 32008 ft 473 kts 359°
2026-05-04 13:26 47.67056 6.03968 32011 ft 474 kts 359°
2026-05-04 13:27 47.73624 6.04284 32014 ft 475 kts
2026-05-04 13:27 47.80100 6.06419 32012 ft 477 kts 13°
2026-05-04 13:28 47.86547 6.08848 32010 ft 477 kts 13°
2026-05-04 13:28 47.92964 6.11245 32009 ft 477 kts 13°
2026-05-04 13:29 47.99396 6.13663 32012 ft 477 kts 13°
2026-05-04 13:29 48.05844 6.16103 32014 ft 477 kts 13°
2026-05-04 13:30 48.12288 6.18557 32016 ft 477 kts 13°
2026-05-04 13:30 48.17647 6.20603 32019 ft 477 kts 13°
2026-05-04 13:31 48.24087 6.23051 32020 ft 477 kts 13°